Regional Weather Roundup
Issued by NWS

Home | Current Version | Previous Version | Graphics & Text | Print | Product List | Glossary Off
Versions: 1 2 3 4 5 6 7 8 9 10 11 12 13 14 15 16 17 18 19 20 21 22 23 24 25 26 27 28 29 30 31 32 33 34 35 36 37 38 39 40 41 42 43 44 45 46 47 48 49 50

916
ASUS43 KDMX 230606
RWRIA

WEATHER ROUNDUP FOR IOWA
NATIONAL WEATHER SERVICE DES MOINES IA
100 AM CDT SUN APR 23 2017

NOTE: "FAIR" INDICATES FEW OR NO CLOUDS BELOW 12,000 FEET WITH NO
SIGNIFICANT WEATHER AND/OR OBSTRUCTIONS TO VISIBILITY.

* - THESE STATIONS ARE NOT NWS STATIONS...THUS NOT UNDER NWS
QUALITY CONTROL.  THEY ALSO DO NOT REPORT WEATHER SUCH
AS PRECIPITATION OR FOG.

IAZ001>003-012>014-020>022-031>034-043>046-230700-
   NORTHWEST IOWA

CITY           SKY/WX    TMP DP  RH WIND       PRES   REMARKS
CARROLL *      PTCLDY    43  37  81 W7        30.17S
CHEROKEE *     CLEAR     39  37  93 CALM      30.16F
DENISON *      CLEAR     41  36  81 CALM      30.20S
LE MARS *      CLEAR     41  39  93 SW3       30.18S
ORANGE CITY *  CLEAR     48  36  61 CALM      30.16S
SHELDON *      CLEAR     48  34  57 SW6       30.14F
SIOUX CITY     CLEAR     41  34  76 CALM      30.18F
6HR MIN TEMP:  41; 6HR MAX TEMP:  67;

SPENCER        CLEAR     43  36  76 SW7       30.15F
6HR MIN TEMP:  40; 6HR MAX TEMP:  66;

STORM LAKE *   CLEAR     52  32  46 W7        30.17F
$$

IAZ055>058-069>071-079>083-090>094-230700-
   SOUTHWEST IOWA

CITY           SKY/WX    TMP DP  RH WIND       PRES   REMARKS
ATLANTIC *     CLEAR     37  34  87 CALM      30.19S
AUDUBON *      CLEAR     36  32  87 CALM      30.19S
CLARINDA *     CLEAR     37  36  93 CALM      30.22S
COUNCIL BLFS * HVY RAIN  52  28  40 CALM      30.19S
CRESTON *      CLEAR     46  30  53 CALM      30.19F
HARLAN  *      CLEAR     43  39  87 CALM      30.22S
LAMONI         CLEAR     44  32  62 W3        30.18F
6HR MIN TEMP:  44; 6HR MAX TEMP:  61;

RED OAK *      CLEAR     39  34  81 CALM      30.19F
SHENANDOAH *   CLEAR     41  36  81 E5        30.20S
$$

IAZ047>049-059>061-072>074-084-230700-
   CENTRAL IOWA

CITY           SKY/WX    TMP DP  RH WIND       PRES   REMARKS
AMES           CLEAR     45  35  68 SW5       30.16F
6HR MIN TEMP:  42; 6HR MAX TEMP:  64;

ANKENY *       CLEAR     41  36  81 CALM      30.18S
BOONE *        CLEAR     54  28  37 SW5       30.16S
CHARITON *     CLEAR     48  28  46 CALM      30.17F
DES MOINES     CLEAR     50  32  50 CALM      30.17F
6HR MIN TEMP:  50; 6HR MAX TEMP:  66;

GRINNELL*      CLEAR     48  27  44 CALM      30.17F
KNOXVILLE *    CLEAR     45  32  61 CALM      30.15F
MARSHALLTOWN   CLEAR     44  34  67 SW3       30.15S
6HR MIN TEMP:  43; 6HR MAX TEMP:  64;

NEWTON *       CLEAR     50  27  40 CALM      30.15F
PELLA *        CLEAR     45  28  50 CALM      30.17F
PERRY *          N/A     45  32  59 SW7       30.18R
$$

IAZ004>006-015-016-023>025-035-036-230700-
   NORTH CENTRAL IOWA

CITY           SKY/WX    TMP DP  RH WIND       PRES   REMARKS
ALGONA *       CLEAR     50  36  57 SW7       30.15S
CLARION *      CLEAR     45  37  76 CALM      30.16S
ESTHERVILLE    CLEAR     45  36  70 SW10      30.14S
6HR MIN TEMP:  45; 6HR MAX TEMP:  65;

FORT DODGE *   CLEAR     43  34  70 CALM      30.17S
MASON CITY     CLEAR     46  33  60 SW6       30.15F
6HR MIN TEMP:  45; 6HR MAX TEMP:  65;

FOREST CITY *    N/A     41  36  81 SW3       30.15S
WEBSTER CITY * CLEAR     48  34  57 S9        30.14S
IOWA FALLS *     N/A     49  33  52 S8        30.17S
$$

IAZ007>011-017>019-026>030-037>042-050>054-066-230700-
   NORTHEAST IOWA

CITY           SKY/WX    TMP DP  RH WIND       PRES   REMARKS
CEDAR RAPIDS   CLEAR     43  30  60 CALM      30.14F
6HR MIN TEMP:  43; 6HR MAX TEMP:  61;

CHARLES CITY * CLEAR     50  34  53 SW5       30.15S
CLINTON *      CLEAR     45  33  63 CALM      30.15F
DECORAH *      CLEAR     50  30  46 CALM      30.13S
DUBUQUE        CLEAR     42  32  67 CALM      30.14F
6HR MIN TEMP:  41; 6HR MAX TEMP:  60;

MONTICELLO *   CLEAR     39  36  87 CALM      30.14F
OELWEIN *      CLEAR     45  37  76 S6        30.15F
WATERLOO       CLEAR     43  36  76 CALM      30.14F
6HR MIN TEMP:  42; 6HR MAX TEMP:  63;

$$

IAZ064-065-067-068-078-230700-
   EAST CENTRAL IOWA

CITY           SKY/WX    TMP DP  RH WIND       PRES   REMARKS
DAVENPORT      CLEAR     41  31  67 SE5       30.15F
6HR MIN TEMP:  41; 6HR MAX TEMP:  61;

IOWA CITY      CLEAR     42  34  73 CALM      30.16F
6HR MIN TEMP:  42; 6HR MAX TEMP:  63;

MT. PLEASANT * CLEAR     44  32  62 CALM      30.16F
MUSCATINE *    CLEAR     43  34  70 VRB3      30.16F
QUAD CITIES    CLEAR     41  36  82 CALM      30.15F
6HR MIN TEMP:  41; 6HR MAX TEMP:  62;

$$

IAZ062-063-075>077-085>089-095>099-230700-
   SOUTHEAST IOWA

CITY           SKY/WX    TMP DP  RH WIND       PRES   REMARKS
BURLINGTON     CLEAR     44  37  76 NE5       30.16S
6HR MIN TEMP:  43; 6HR MAX TEMP:  60;

FAIRFIELD *    CLEAR     45  30  57 CALM      30.16F
FORT MADISON * CLEAR     45  34  65 CALM      30.17S
KEOKUK *       CLEAR     45  37  76 N6        30.16S
OSKALOOSA *      N/A     45  30  56 CALM      30.17S
CENTERVILLE *    N/A     45  32  61 CALM      30.18F
OTTUMWA        CLEAR     41  29  62 CALM      30.16F
6HR MIN TEMP:  40; 6HR MAX TEMP:  62;

WASHINGTON *   CLEAR     45  32  61 CALM      30.16F
$$

ABBREVIATIONS USED IN REMARKS
   TC - TEMPERATURES IN CELSIUS
  WCI - WIND CHILL INDEX
   HX - HEAT INDEX
  VSB - VISIBILITY
$$





USA.gov is the U.S. government's official web portal to all federal, state and local government web resources and services.